D8954 Weather Reports


Display with metric or nautical units.
time (UTC)temp
F
wind
direction
speed
MPH
gust
MPH
rain 1hr
in
rain 24hr
in
rain mn
in
humidity
%
barometer
mb
20260504050505 53 240 0.0 0.0 0.00 0.01 0.00 72 1013.5
20260504045505 52 240 0.0 2.0 0.00 0.02 0.00 72 1013.5
20260504044505 51 240 1.0 2.0 0.00 0.02 0.00 71 1013.5
20260504044005 51 240 1.0 2.0 0.00 0.02 0.00 70 1013.3
20260504043505 51 240 1.0 2.0 0.00 0.02 0.00 69 1013.4
20260504043006 51 240 1.0 2.0 0.00 0.02 0.00 69 1013.4
20260504042504 51 240 1.0 2.0 0.00 0.02 0.00 69 1013.3
20260504042005 51 241 1.0 2.0 0.00 0.02 0.00 69 1013.3
20260504041006 50 215 1.0 2.0 0.00 0.02 0.00 70 1013.2
20260504040005 51 232 2.0 3.0 0.00 0.02 0.00 69 1013.3
20260504035505 51 232 2.0 3.0 0.00 0.02 0.00 69 1013.4
20260504035005 51 232 2.0 3.0 0.00 0.02 0.00 68 1013.3
20260504034505 51 229 1.0 2.0 0.00 0.02 0.00 68 1013.3
20260504034005 51 229 2.0 3.0 0.00 0.02 0.00 69 1013.4
20260504033506 50 235 2.0 3.0 0.00 0.02 0.00 69 1013.4
20260504033006 50 233 2.0 3.0 0.00 0.02 0.00 69 1013.4
20260504032505 50 232 1.0 3.0 0.00 0.02 0.00 69 1013.4
20260504032005 51 233 2.0 2.0 0.00 0.02 0.00 68 1013.5
20260504031005 51 233 1.0 3.0 0.00 0.02 0.00 68 1013.5
20260504030506 51 233 2.0 3.0 0.00 0.02 0.00 67 1013.5
20260504030005 50 234 2.0 2.0 0.00 0.02 0.00 69 1013.6
20260504025505 51 236 1.0 2.0 0.00 0.02 0.00 69 1013.5
20260504025005 50 236 1.0 2.0 0.00 0.02 0.00 69 1013.5
20260504024505 50 236 2.0 2.0 0.00 0.02 0.00 70 1013.6
20260504024005 51 235 1.0 2.0 0.00 0.02 0.00 69 1013.7
20260504023505 51 235 2.0 2.0 0.00 0.02 0.00 69 1013.6
20260504023006 52 235 1.0 2.0 0.00 0.02 0.00 67 1013.6
20260504022505 52 235 1.0 2.0 0.00 0.02 0.00 66 1013.6
20260504021505 52 235 1.0 3.0 0.00 0.02 0.00 67 1013.7
20260504021005 52 235 1.0 1.0 0.00 0.02 0.00 67 1013.5
20260504020005 52 235 1.0 1.0 0.00 0.02 0.00 67 1013.5
20260504015505 52 235 1.0 1.0 0.00 0.02 0.00 67 1013.5
20260504015005 51 235 1.0 2.0 0.00 0.02 0.00 70 1013.5
20260504014505 51 235 2.0 2.0 0.00 0.02 0.00 68 1013.5
20260504014005 53 235 2.0 2.0 0.00 0.02 0.00 66 1013.5
20260504013505 53 235 1.0 2.0 0.00 0.02 0.00 65 1013.5
20260504013006 53 235 2.0 2.0 0.00 0.02 0.00 65 1013.5
20260504012505 53 235 1.0 2.0 0.00 0.02 0.00 65 1013.5
20260504011505 53 235 1.0 2.0 0.00 0.02 0.00 65 1013.4
20260504011005 53 235 1.0 1.0 0.00 0.02 0.00 65 1013.4
20260504010505 54 235 1.0 3.0 0.00 0.02 0.00 64 1013.5
20260504010005 54 266 1.0 2.0 0.00 0.02 0.00 64 1013.5
20260504005505 55 266 1.0 2.0 0.00 0.02 0.00 62 1013.4
20260504004005 56 269 1.0 1.0 0.00 0.02 0.00 62 1013.5
20260504003505 56 269 1.0 2.0 0.00 0.02 0.00 62 1013.5
20260504003006 56 269 1.0 2.0 0.00 0.02 0.00 61 1013.5
20260504002505 56 272 2.0 3.0 0.00 0.02 0.00 61 1013.6
20260504001505 56 271 2.0 2.0 0.00 0.02 0.00 63 1013.6
20260504001005 55 271 2.0 2.0 0.00 0.02 0.00 64 1013.6
20260504000505 56 271 2.0 3.0 0.00 0.02 0.00 65 1013.6
20260504000005 56 271 2.0 3.0 0.00 0.02 0.00 61 1013.6
20260503235505 57 269 2.0 3.0 0.00 0.02 0.00 61 1013.7
20260503234505 58 252 1.0 2.0 0.00 0.02 0.00 55 1013.7
20260503234005 58 252 0.0 2.0 0.00 0.02 0.00 55 1013.7
20260503233505 58 252 1.0 1.0 0.00 0.02 0.00 56 1013.8
20260503233006 58 252 0.0 1.0 0.00 0.02 0.00 57 1013.8
20260503232504 58 252 0.0 2.0 0.00 0.02 0.00 56 1013.8
20260503232005 58 252 1.0 2.0 0.00 0.02 0.00 55 1013.9
20260503231005 58 245 0.0 2.0 0.00 0.02 0.00 55 1013.8
20260503230504 58 229 0.0 2.0 0.00 0.02 0.00 56 1013.9
20260503230005 58 229 1.0 3.0 0.00 0.02 0.00 57 1013.9
20260503225505 58 234 0.0 2.0 0.00 0.02 0.00 56 1013.8
20260503225005 59 234 1.0 2.0 0.00 0.02 0.00 56 1013.8
20260503224005 59 238 1.0 2.0 0.00 0.02 0.00 57 1013.7
20260503223505 59 240 1.0 3.0 0.00 0.02 0.00 54 1013.6
20260503222505 59 223 0.0 2.0 0.00 0.02 0.00 56 1013.5
20260503222005 59 223 1.0 2.0 0.00 0.02 0.00 54 1013.4
20260503221505 59 224 0.0 2.0 0.00 0.02 0.00 54 1013.4
20260503221005 60 245 0.0 2.0 0.00 0.02 0.00 56 1013.4
20260503215005 60 339 1.0 6.0 0.00 0.02 0.02 53 1013.3
20260503214505 60 242 0.0 2.0 0.00 0.02 0.02 57 1013.6
20260503214005 60 230 2.0 3.0 0.00 0.02 0.02 53 1013.5
20260503213505 60 220 2.0 3.0 0.00 0.02 0.02 55 1013.4
20260503212505 60 227 1.0 3.0 0.00 0.02 0.02 55 1013.5
20260503212005 61 244 0.0 2.0 0.00 0.02 0.02 54 1013.4
20260503211505 61 249 1.0 3.0 0.00 0.02 0.02 54 1013.5
20260503211005 61 215 1.0 3.0 0.00 0.02 0.02 52 1013.5
20260503210505 61 231 2.0 3.0 0.00 0.02 0.02 51 1013.5
20260503210005 61 224 2.0 6.0 0.00 0.02 0.02 52 1013.5
20260503205005 61 228 3.0 6.0 0.00 0.02 0.02 50 1013.5
20260503204505 62 221 3.0 5.0 0.00 0.02 0.02 50 1013.4
20260503203006 62 162 2.0 9.0 0.00 0.02 0.02 49 1013.1
20260503202505 62 327 3.0 6.0 0.00 0.02 0.02 50 1013.1
20260503202005 62 282 2.0 8.0 0.00 0.02 0.02 48 1013.2
20260503201504 62 308 2.0 10.0 0.00 0.02 0.02 48 1013.2
20260503201005 62 344 2.0 5.0 0.00 0.02 0.02 49 1013.3
20260503200505 62 332 2.0 5.0 0.00 0.02 0.02 50 1013.3
20260503200005 63 1 2.0 6.0 0.00 0.02 0.02 48 1013.2
20260503195505 63 284 1.0 3.0 0.00 0.02 0.02 48 1013.2
20260503195005 63 351 2.0 10.0 0.00 0.02 0.02 49 1013.1
20260503194005 63 267 3.0 8.0 0.00 0.02 0.02 50 1013.1
20260503193505 63 306 3.0 8.0 0.00 0.02 0.02 48 1013.2
20260503192519 64 243 1.0 7.0 0.00 0.02 0.02 48 1013.1
20260503192004 64 227 3.0 8.0 0.00 0.02 0.02 48 1013.1
20260503191505 64 201 2.0 5.0 0.00 0.02 0.02 47 1013.0
20260503190005 65 204 3.0 5.0 0.00 0.02 0.02 45 1012.9
20260503185505 65 302 3.0 9.0 0.00 0.02 0.02 46 1012.8
20260503185004 66 241 4.0 10.0 0.00 0.02 0.02 46 1012.7
20260503184506 66 224 3.0 9.0 0.00 0.02 0.02 46 1012.7
20260503184005 65 32 2.0 9.0 0.00 0.02 0.02 49 1012.7
20260503183505 65 272 1.0 3.0 0.00 0.02 0.02 54 1012.4
20260503183008 65 239 1.0 3.0 0.00 0.02 0.02 55 1012.3
20260503181505 66 222 0.0 2.0 0.00 0.02 0.02 52 1012.1
20260503181005 66 222 0.0 2.0 0.00 0.02 0.02 52 1012.0
20260503180505 66 222 0.0 2.0 0.00 0.02 0.02 51 1011.9
20260503180005 66 221 0.0 2.0 0.00 0.02 0.02 51 1011.9
20260503175505 66 221 1.0 2.0 0.00 0.02 0.02 51 1012.0
20260503175005 66 221 1.0 3.0 0.00 0.02 0.02 49 1011.9
20260503174505 67 219 0.0 2.0 0.00 0.02 0.02 48 1012.0
20260503174005 66 230 1.0 3.0 0.00 0.02 0.02 51 1011.9
20260503173505 67 219 0.0 2.0 0.00 0.02 0.02 48 1011.9
20260503173006 67 219 0.0 2.0 0.00 0.02 0.02 50 1011.9
20260503172505 68 219 1.0 3.0 0.00 0.02 0.02 49 1011.9
20260503172005 68 215 2.0 3.0 0.00 0.02 0.02 46 1011.9
20260503171505 68 230 2.0 5.0 0.00 0.02 0.02 45 1011.8
20260503170505 69 213 3.0 8.0 0.00 0.02 0.02 43 1011.9
20260503151004 71 219 3.0 7.0 0.00 0.02 0.02 45 1011.8
20260503150519 71 213 3.0 10.0 0.00 0.02 0.02 46 1011.8
20260503131005 73 216 6.0 12.0 0.00 0.02 0.02 41 1012.9
20260503130504 73 225 7.0 12.0 0.00 0.02 0.02 41 1013.1
20260503110504 72 238 1.0 3.0 0.00 0.02 0.02 42 1013.7
20260503090504 68 244 3.0 8.0 0.00 0.02 0.02 46 1014.6
20260503081005 67 309 5.0 8.0 0.00 0.02 0.02 44 1014.8
20260503080505 66 317 4.0 6.0 0.00 0.02 0.02 49 1014.9